Retour au catalogue

NOAA 12

ActifMétéoSSO
NORAD 21263·PAYLOAD·🇺🇸 United States

Lancé May 14, 1991 depuis Vandenberg Space Force Base

Loading…

Prochains Passages (prochaines 24 heures)

TLE

FraisSource: Space-Track

Époque: Sep 14, 2026, 13:01 UTC

1 21263U 91032A   26257.54249203  .00000051  00000-0  39167-4 0  9996
2 21263  98.6301 244.7690 0014551 124.6858 235.5696 14.26760712837702

Suivez NOAA 12 en temps réel avec AllMySat

Download on the App Store